Location: Cornospital
(48.0620°N, 3.3837°W)
Time: 02:23:24
(UTC+00:00)

Cosmos 2219 Rocket - Visible Passes

Search period start: 23 October 2021 00:00
Search period end: 02 November 2021 00:00
Orbit: 828 x 846 km, 71.0° (Epoch: 22 October)

Date Brightness Start Highest point End Pass type
(mag) Time Alt. Az. Time Alt. Az. Time Alt. Az.
23 Oct 4.6 03:35:09 10° N 03:39:04 19° NE 03:42:59 10° E visible
23 Oct 2.3 05:18:18 10° NNW 05:23:59 78° ENE 05:29:39 10° SSE visible
24 Oct 4.6 03:18:48 10° N 03:22:35 18° NE 03:26:21 10° E visible
24 Oct 2.4 05:01:52 10° NNW 05:07:34 74° ENE 05:13:13 10° SE visible
24 Oct 3.8 19:55:41 10° SSW 19:57:34 22° SSW 19:57:34 22° SSW visible
25 Oct 4.7 03:02:28 10° N 03:06:05 17° NE 03:09:43 10° ENE visible
25 Oct 2.5 04:45:28 10° NNW 04:51:08 69° ENE 04:56:47 10° SE visible
25 Oct 4.0 18:00:37 10° ESE 18:01:21 11° E 18:01:21 11° E visible
25 Oct 2.7 19:39:18 10° SSW 19:43:11 46° S 19:43:11 46° S visible
25 Oct 4.9 21:24:46 10° W 21:25:01 11° W 21:25:01 11° W visible
26 Oct 4.7 02:47:06 13° N 02:49:36 16° NE 02:53:03 10° ENE visible
26 Oct 2.5 04:29:04 10° NNW 04:34:43 65° ENE 04:40:20 10° SE visible
26 Oct 3.3 06:13:51 10° NW 06:18:10 23° WSW 06:22:29 10° SSW visible
26 Oct 2.0 19:22:55 10° SSW 19:28:26 66° ESE 19:28:40 65° E visible
26 Oct 4.4 21:08:13 10° WSW 21:10:29 20° W 21:10:29 20° W visible
27 Oct 4.7 02:32:09 15° NNE 02:33:06 15° NE 02:36:24 10° ENE visible
27 Oct 2.6 04:13:57 17° NNW 04:18:17 60° ENE 04:23:53 10° SE visible
27 Oct 3.2 05:57:20 10° NW 06:01:49 24° WSW 06:06:16 10° SSW visible
27 Oct 2.1 19:06:33 10° S 19:12:02 61° ESE 19:13:56 39° NE visible
27 Oct 4.0 20:51:39 10° WSW 20:55:44 27° WNW 20:55:44 27° WNW visible
28 Oct 4.8 02:17:26 14° NE 02:17:26 14° NE 02:19:44 10° ENE visible
28 Oct 2.7 03:59:15 31° N 04:01:51 57° ENE 04:07:25 10° SE visible
28 Oct 3.1 05:41:04 11° NW 05:45:26 26° WSW 05:50:03 10° SSW visible
28 Oct 2.2 18:50:11 10° S 18:55:38 57° ESE 18:58:58 24° NE visible
28 Oct 3.8 20:35:05 10° WSW 20:39:57 29° NW 20:40:46 28° NNW visible
29 Oct 5.1 02:02:55 10° ENE 02:02:55 10° ENE 02:03:02 10° ENE visible
29 Oct 2.8 03:44:45 50° NNE 03:45:25 53° ENE 03:50:58 10° SE visible
29 Oct 3.0 05:26:35 20° WNW 05:29:04 28° WSW 05:33:49 10° SSW visible
29 Oct 2.3 18:33:50 10° S 18:39:15 53° ESE 18:43:48 15° NE visible
29 Oct 3.8 20:18:33 10° WSW 20:23:29 31° NW 20:25:33 24° NNW visible
30 Oct 3.3 03:30:23 41° E 03:30:23 41° E 03:34:30 10° SE visible
30 Oct 2.9 05:12:14 30° W 05:12:42 30° WSW 05:17:34 10° SSW visible
30 Oct 2.4 18:17:30 10° S 18:22:51 49° ESE 18:28:16 10° NE visible
30 Oct 3.7 20:02:00 10° WSW 20:07:01 33° NW 20:10:10 19° N visible
31 Oct 4.2 03:16:05 21° ESE 03:16:05 21° ESE 03:18:00 10° SE visible
31 Oct 3.2 04:57:56 28° SW 04:57:56 28° SW 05:01:18 10° SSW visible
31 Oct 2.5 18:01:10 10° S 18:06:28 46° ESE 18:11:48 10° NE visible
31 Oct 3.6 19:45:29 10° WSW 19:50:34 35° NW 19:54:36 15° N visible
31 Oct 5.1 21:35:35 10° NW 21:36:20 10° NNW 21:36:20 10° NNW visible
01 Nov 3.9 04:43:37 17° SSW 04:43:37 17° SSW 04:45:02 10° S visible
01 Nov 2.6 17:44:51 10° S 17:50:05 43° ESE 17:55:22 10° NE visible
01 Nov 3.5 19:28:58 10° WSW 19:34:07 37° NW 19:38:55 12° NNE visible
01 Nov 5.0 21:18:34 10° NW 21:19:52 11° NNW 21:20:39 10° NNW visible
